Location: Sevilla
(37.3933°N, 5.9839°W)
Time: 03:39:51
(UTC+02:00)

Tiros 1 despin weight - Pass Details

Date: 03 July 2024
Orbit: 576 x 620 km, 48.2° (Epoch: 22 July)

Event Time Altitude Azimuth Distance (km) Brightness Sun altitude
Rises 16:48:15 0° 299° (WNW) 2,894 ? 56.7°
Reaches altitude 10° 16:50:37 10° 294° (WNW) 1,986 ? 56.3°
Maximum altitude 16:55:00 46° 221° (SW) 828 ? 55.4°
Drops below altitude 10° 16:59:20 10° 148° (SSE) 1,968 ? 54.6°
Sets 17:01:41 0° 142° (SE) 2,865 ? 54.1°
